CAPE
0 0 0 0 0 0 0 27 25 15 33 52 86 92 330 242 252 256 283 343 452 607 622 741 808 929 803 906 1052 1274 1441 1688 1828 1667 1718 1847 1502 1476 1514 1362 1161 1166 939 893
0 0 0 0 0 0 0 1 11 14 4 66 58 69 246 240 172 163 170 198 236 364 476 526 581 737 551 572 891 1097 1495 1792 1845 1807 1719 1648 1672 1667 1661 1519 1384 1131 938 1001
0 0 0 0 0 0 0 0 0 0 0 10 36 47 92 233 230 177 117 90 88 114 187 230 274 312 578 461 724 861 1325 1646 1725 1716 1683 1756 1605 1570 1447 1435 1154 1290 1149 916
0 0 0 0 0 0 0 0 0 0 7 2 48 0 58 105 187 184 147 101 84 102 105 145 179 236 372 416 562 491 874 1277 1457 1537 1793 1823 1570 1420 1361 1316 1456 1549 1163 911
0 0 0 0 0 0 0 0 0 0 2 5 36 3 0 63 67 119 124 125 108 102 138 203 228 244 290 459 407 390 585 851 1087 1220 1514 1895 1622 1358 946 586 622 1454 1093 1004
0 0 0 0 0 0 0 0 1 2 0 0 0 0 0 14 88 113 132 137 138 135 243 251 300 335 284 570 458 352 464 588 868 1134 1389 1681 1571 1350 1005 356 485 1305 1233 6
0 0 0 0 0 0 0 0 0 0 0 0 0 0 0 1 61 95 111 147 184 190 313 478 413 533 446 566 597 567 576 711 1055 1285 1517 1652 1659 1400 1172 114 587 1088 221 0
0 0 0 0 0 0 0 0 0 0 0 0 0 0 3 6 5 55 61 107 138 221 360 503 609 543 674 584 671 693 800 846 1157 1450 1628 1754 1964 1693 1749 237 312 353 0 0
0 0 0 0 0 0 0 0 0 0 0 0 0 0 0 0 0 4 25 87 119 141 329 483 616 691 836 731 736 783 1015 1068 1197 1461 1676 1877 2175 1898 2014 9 110 26 0 0
0 0 0 0 0 0 0 0 0 0 0 0 0 0 0 0 0 0 0 28 83 98 295 401 550 690 899 871 802 843 1084 1235 1265 1432 1618 1828 2060 2215 536 2 21 7 0 0
0 0 0 0 0 0 0 0 0 0 0 0 0 0 0 0 0 0 0 12 17 65 156 350 608 751 918 908 834 897 1178 1397 1454 1409 1536 1578 1921 1830 135 0 0 0 0 0
0 0 0 0 0 0 0 0 0 0 0 0 0 0 0 0 0 0 0 1 0 36 109 229 576 755 856 863 857 984 1231 1448 1572 1506 1607 1498 1649 1549 736 0 0 3 15 0
1 0 0 0 0 0 0 0 0 0 0 0 0 0 0 0 0 0 4 4 3 20 72 159 378 692 842 865 936 1093 1321 1417 1558 1560 1553 1684 1453 1427 989 95 18 18 72 0
50 2 0 0 0 0 0 0 0 0 0 0 0 0 0 0 0 0 1 12 10 20 44 148 252 428 617 747 819 1120 1352 1395 1431 1473 1547 1667 1578 1460 1108 398 59 80 13 0
10 0 0 0 0 0 0 0 0 0 0 0 0 0 0 0 0 0 0 22 13 19 75 109 244 335 448 553 646 754 1076 1305 1415 1412 1366 1540 1602 1521 1289 811 142 119 6 0
64 0 0 0 0 0 0 0 0 0 0 0 0 0 0 0 0 0 0 15 37 60 124 172 196 231 333 395 480 593 921 1095 1397 1391 1323 1347 1407 1528 1391 621 294 266 199 141
92 12 0 0 0 0 0 0 0 0 0 0 0 0 0 0 0 0 0 27 111 180 166 193 211 189 148 205 340 471 817 1060 1374 1412 1380 1345 1328 1371 1069 154 46 576 561 363
66 74 42 0 0 0 0 0 0 0 0 0 0 0 0 0 0 1 0 1 56 144 158 185 150 111 72 71 145 332 677 1034 1346 1443 1449 1424 1415 1313 1058 292 10 369 475 104
41 57 71 14 0 0 4 0 0 29 27 28 8 0 3 1 0 2 1 4 10 73 86 65 123 207 132 146 216 418 650 1003 1307 1412 1490 1495 1432 1415 899 280 18 121 508 250
58 23 54 51 36 1 1 18 30 36 28 27 19 10 2 0 2 0 0 4 66 85 149 182 387 345 359 394 566 694 788 975 1205 1315 1428 1504 1560 1515 965 557 99 65 359 444
48 38 15 53 53 31 66 68 68 63 3 34 23 16 23 19 25 45 118 152 170 183 160 192 283 518 518 547 681 905 1019 1086 1053 1188 1337 1559 1478 1605 1052 436 264 236 390 459
16 81 60 55 58 154 136 152 130 25 24 39 45 68 65 49 82 166 223 253 242 244 246 163 113 340 627 749 785 878 909 865 1010 1220 1455 1411 1322 1300 759 441 346 397 356 241
84 160 121 25 35 64 213 164 109 78 37 46 81 145 162 143 149 215 250 315 314 341 263 373 410 501 541 704 863 946 862 918 1220 1405 1384 1152 1090 865 536 413 273 190 34 29
141 49 14 40 52 160 189 171 146 138 104 82 89 134 187 206 186 177 332 331 171 183 310 479 547 603 683 761 806 985 1205 1276 1300 1105 902 855 767 571 414 278 148 89 30 0
64 53 3 8 29 57 119 106 84 97 147 101 98 91 116 156 105 177 142 484 571 597 508 573 559 665 832 978 1056 1134 1303 1104 763 597 575 527 591 506 341 217 175 3 1 64
161 58 0 1 3 12 1 18 58 60 26 31 2 1 3 5 0 0 7 175 462 543 655 704 669 687 917 955 999 1076 960 685 442 212 134 136 152 150 63 13 51 11 87 133
CIN
-0 -0 -0 -0 -0 -0 -0 -52 -53 -84 -130 -148 -143 -180 -323 -331 -311 -315 -272 -258 -232 -210 -169 -133 -101 -73 -81 -66 -41 -62 -53 -57 -29 -18 -15 -7 -14 -21 -13 -13 -20 -10 -11 -11
-0 -0 -0 -0 -0 -0 -0 -5 -36 -58 -107 -96 -117 -153 -317 -310 -228 -322 -313 -293 -284 -240 -193 -168 -127 -88 -104 -124 -66 -75 -42 -29 -29 -21 -20 -21 -16 -9 -5 -4 -4 -4 -11 -8
-0 -0 -0 -0 -0 -0 -0 -0 -0 -0 -0 -176 -170 -180 -295 -313 -286 -268 -333 -337 -304 -286 -253 -227 -212 -200 -132 -170 -112 -143 -67 -35 -36 -33 -17 -7 -6 -8 -12 -5 -23 -23 -12 -3
-0 -0 -0 -0 -0 -0 -0 -0 -0 -0 -133 -30 -149 -0 -223 -269 -309 -301 -310 -312 -317 -287 -284 -187 -211 -229 -172 -187 -138 -237 -152 -76 -58 -62 -26 -16 -21 -26 -33 -31 -18 -12 -11 -11
-0 -0 -0 -0 -0 -0 -0 -0 -0 -0 -130 -131 -175 -25 -0 -250 -303 -343 -349 -316 -280 -263 -233 -171 -170 -185 -183 -129 -163 -158 -175 -139 -104 -81 -76 -30 -32 -42 -70 -108 -89 -26 -30 -23
-0 -0 -0 -0 -0 -0 -0 -0 -0 -1 -0 -0 -0 -0 -0 -318 -264 -306 -366 -279 -257 -193 -161 -147 -122 -104 -146 -108 -120 -281 -260 -247 -261 -161 -103 -60 -44 -52 -85 -147 -170 -39 -26 -33
-0 -0 -0 -0 -0 -0 -0 -0 -0 -0 -0 -0 -0 -0 -0 -28 -263 -228 -295 -349 -313 -240 -158 -135 -133 -111 -122 -125 -125 -387 -346 -309 -265 -188 -124 -84 -65 -69 -84 -270 -184 -82 -170 -0
-0 -0 -0 -0 -0 -0 -0 -0 -0 -0 -0 -0 -0 -0 -228 -132 -63 -255 -280 -317 -283 -277 -192 -145 -130 -110 -106 -114 -121 -355 -334 -321 -291 -202 -148 -106 -66 -66 -54 -204 -225 -181 -0 -0
-0 -0 -0 -0 -0 -0 -0 -0 -0 -0 -0 -0 -0 -0 -0 -0 -0 -68 -297 -250 -276 -420 -372 -192 -141 -114 -101 -107 -137 -396 -324 -308 -282 -205 -136 -113 -64 -70 -58 -370 -269 -274 -0 -0
-0 -0 -0 -0 -0 -0 -0 -0 -0 -0 -0 -0 -0 -0 -0 -0 -0 -0 -0 -330 -275 -227 -433 -368 -303 -145 -129 -122 -123 -357 -329 -309 -309 -209 -150 -137 -100 -69 -131 -159 -331 -287 -0 -0
-0 -0 -0 -0 -0 -0 -0 -0 -0 -0 -0 -0 -0 -0 -0 -0 -0 -0 -0 -371 -302 -253 -460 -399 -448 -304 -145 -145 -134 -368 -346 -304 -284 -231 -164 -147 -112 -60 -137 -0 -0 -0 -0 -0
-0 -0 -0 -0 -0 -0 -0 -0 -0 -0 -0 -0 -0 -0 -0 -0 -0 -0 -0 -127 -13 -140 -469 -381 -518 -418 -326 -211 -191 -370 -381 -336 -316 -238 -159 -124 -95 -80 -91 -0 -0 -271 -259 -4
-2 -0 -0 -0 -0 -0 -0 -0 -0 -0 -0 -0 -0 -0 -0 -0 -0 -0 -111 -102 -168 -150 -515 -430 -514 -468 -389 -313 -320 -392 -385 -386 -354 -270 -184 -127 -108 -76 -95 -65 -22 -197 -21 -0
-3 -6 -0 -0 -0 -0 -0 -0 -0 -0 -0 -0 -0 -0 -0 -0 -0 -0 -65 -121 -140 -17 -299 -500 -435 -437 -378 -343 -344 -437 -402 -380 -342 -273 -217 -132 -115 -103 -88 -61 -23 -21 -17 -0
-2 -0 -0 -0 -0 -0 -0 -0 -0 -0 -0 -0 -0 -0 -0 -0 -0 -0 -0 -135 -41 -30 -26 -303 -439 -365 -368 -373 -330 -502 -462 -372 -339 -288 -250 -190 -144 -107 -95 -61 -35 -51 -98 -0
-114 -0 -0 -0 -0 -0 -0 -0 -0 -0 -0 -0 -0 -0 -0 -0 -0 -0 -0 -121 -93 -47 -28 -38 -34 -415 -410 -396 -384 -629 -507 -452 -355 -313 -268 -225 -153 -103 -88 -37 -35 -7 -145 -121
-31 -33 -0 -0 -0 -0 -0 -0 -0 -0 -0 -0 -0 -0 -0 -0 -0 -0 -0 -73 -73 -63 -60 -50 -66 -70 -83 -384 -395 -612 -529 -418 -336 -301 -273 -237 -173 -65 -36 -1 -38 -26 -87 -103
-33 -34 -40 -0 -0 -0 -0 -0 -0 -0 -0 -0 -0 -0 -0 -0 -0 -8 -0 -11 -81 -79 -70 -92 -117 -137 -110 -128 -226 -621 -522 -454 -347 -309 -256 -201 -163 -93 -48 -22 -156 -49 -49 -110
-14 -5 -18 -42 -0 -0 -103 -0 -0 -111 -167 -239 -219 -0 -13 -12 -0 -40 -8 -59 -49 -66 -54 -356 -113 -83 -121 -170 -188 -533 -514 -460 -340 -286 -238 -194 -165 -79 -62 -30 -246 -13 -24 -61
-23 -8 -24 -18 -10 -2 -8 -227 -193 -168 -73 -71 -95 -105 -80 -0 -30 -0 -0 -105 -43 -169 -146 -236 -244 -266 -250 -275 -301 -312 -223 -406 -344 -288 -235 -165 -94 -33 -53 -30 -23 -74 -37 -26
-15 -28 -9 -17 -4 -150 -159 -159 -100 -42 -40 -93 -180 -189 -180 -147 -221 -162 -142 -145 -98 -65 -59 -364 -418 -325 -315 -389 -455 -238 -206 -190 -250 -258 -146 -71 -65 -19 -32 -40 -37 -61 -41 -29
-19 -17 -24 -28 -58 -112 -123 -151 -57 -105 -32 -116 -165 -152 -108 -191 -150 -104 -79 -80 -54 -46 -47 -40 -533 -481 -415 -326 -298 -278 -281 -330 -281 -150 -69 -74 -76 -45 -71 -90 -76 -45 -32 -16
-37 -20 -7 -41 -115 -191 -129 -57 -36 -118 -87 -93 -91 -130 -117 -100 -89 -70 -55 -32 -35 -38 -108 -545 -470 -435 -392 -368 -270 -280 -268 -294 -170 -72 -88 -77 -42 -61 -88 -88 -57 -30 -7 -4
-70 -25 -37 -14 -89 -94 -81 -49 -67 -71 -52 -63 -38 -63 -45 -80 -71 -25 -530 -449 -309 -78 -451 -360 -292 -251 -277 -260 -240 -231 -166 -137 -79 -93 -97 -80 -42 -65 -54 -50 -37 -20 -17 -41
-65 -49 -6 -16 -84 -89 -92 -84 -66 -61 -67 -58 -56 -36 -45 -34 -41 -44 -47 -267 -273 -243 -297 -293 -309 -254 -214 -179 -146 -148 -137 -100 -116 -156 -144 -119 -52 -63 -68 -52 -26 -0 -81 -123
-96 -131 -0 -125 -108 -151 -1 -17 -38 -60 -42 -39 -15 -19 -21 -31 -0 -10 -73 -215 -169 -198 -219 -150 -174 -230 -130 -131 -127 -96 -96 -126 -144 -230 -235 -167 -73 -45 -59 -67 -33 -16 -114 -81
Wind_Speed
nan nan nan nan nan nan nan nan nan nan nan nan nan nan 18 23 19 23 11 11 13 12 12 12 9 6 3 2 2 2 0 2 1 1 2 2 3 4 5 7 9 10 10 12
nan nan nan nan nan nan nan nan nan nan nan nan nan nan 10 19 24 25 18 14 11 7 6 10 11 9 5 5 3 2 1 1 1 4 5 5 5 5 7 8 10 12 13 16
nan nan nan nan nan nan nan nan nan nan nan nan nan nan nan 10 12 16 16 nan nan 12 10 12 11 11 7 5 3 4 4 3 5 8 10 9 8 9 10 11 13 15 19 19
nan nan nan nan nan nan nan nan nan nan nan nan nan nan nan 8 15 16 20 21 nan 13 11 12 12 12 10 8 8 7 7 8 11 14 12 15 15 14 14 18 19 20 23 25
nan nan nan nan nan nan nan nan nan nan nan nan nan nan nan nan nan 20 21 25 24 22 19 14 11 14 14 13 13 13 12 15 17 18 18 20 21 22 24 25 23 25 27 27
nan nan nan nan nan nan nan nan nan nan nan nan nan nan nan nan nan 20 14 23 23 22 26 22 17 18 13 16 16 18 20 20 21 22 24 28 32 32 27 23 23 25 27 nan
nan nan nan nan nan nan nan nan nan nan nan nan nan nan nan nan nan nan 19 19 20 24 25 27 18 16 12 16 16 18 21 22 26 29 29 28 27 28 27 24 24 26 26 nan
nan nan nan nan nan nan nan nan nan nan nan nan nan nan nan nan nan nan nan 8 11 17 19 25 24 21 20 15 17 19 20 22 20 23 23 22 23 19 19 21 22 27 nan nan
nan nan nan nan nan nan nan nan nan nan nan nan nan nan nan nan nan nan nan nan 16 19 22 25 25 22 22 18 18 23 19 16 19 21 20 21 21 20 20 nan 24 nan nan nan
nan nan nan nan nan nan nan nan nan nan nan nan nan nan nan nan nan nan nan nan nan nan 21 22 25 26 22 19 16 15 17 22 23 26 27 27 28 29 29 nan nan nan nan nan
nan nan nan nan nan nan nan nan nan nan nan nan nan nan nan nan nan nan nan nan nan nan 20 21 25 25 22 14 14 16 17 22 24 27 30 35 35 37 38 nan nan nan nan nan
nan nan nan nan nan nan nan nan nan nan nan nan nan nan nan nan nan nan nan nan nan nan 20 24 22 23 21 15 20 22 23 25 27 29 30 33 34 35 37 nan nan nan nan nan
nan nan nan nan nan nan nan nan nan nan nan nan nan nan nan nan nan nan nan nan nan nan nan 17 14 15 12 13 14 23 23 26 29 32 35 35 39 36 39 nan nan nan nan nan
nan nan nan nan nan nan nan nan nan nan nan nan nan nan nan nan nan nan nan nan nan nan nan 14 9 12 12 13 22 23 24 28 32 38 39 39 41 40 38 36 nan nan nan nan
nan nan nan nan nan nan nan nan nan nan nan nan nan nan nan nan nan nan nan nan nan nan nan 13 11 9 13 16 17 20 25 29 34 36 40 42 44 48 45 45 34 35 nan nan
nan nan nan nan nan nan nan nan nan nan nan nan nan nan nan nan nan nan nan nan nan nan 11 7 10 15 21 25 25 25 30 33 35 35 39 41 48 46 52 35 38 29 42 42
nan nan nan nan nan nan nan nan nan nan nan nan nan nan nan nan nan nan nan nan 14 8 12 15 17 22 27 31 33 33 36 38 42 39 36 43 48 47 46 54 nan 21 35 41
nan nan nan nan nan nan nan nan nan nan nan nan nan nan nan nan nan nan nan nan nan 15 18 21 24 25 nan nan 36 35 39 43 45 42 40 48 49 56 53 42 nan 40 30 36
nan nan nan nan nan nan nan nan nan nan nan nan nan nan nan nan nan nan nan nan nan nan nan nan 32 34 38 36 40 40 41 46 47 44 45 49 51 53 51 50 nan 37 32 40
nan nan nan nan nan nan nan nan nan nan nan nan nan nan nan nan nan nan nan nan nan nan 37 43 44 52 32 39 46 48 48 51 56 50 45 54 51 50 40 43 nan nan 47 51
nan nan nan nan nan nan nan nan nan nan nan nan nan nan nan nan nan nan 30 36 34 39 46 48 45 47 43 49 50 52 53 57 65 59 48 42 44 45 48 46 45 54 55 52
nan nan nan nan nan 37 47 40 36 nan nan nan nan nan nan nan nan 47 45 46 44 44 47 50 50 49 49 54 59 47 49 56 66 55 52 55 53 52 51 53 47 50 48 49
nan 23 23 nan nan nan 34 32 37 nan nan nan nan 39 37 38 43 38 42 38 38 44 45 48 53 56 62 47 46 54 46 66 69 59 59 61 55 45 42 50 44 45 nan nan
28 nan nan nan nan 47 48 45 45 40 47 nan nan 57 53 50 47 47 41 38 35 37 46 54 53 65 50 54 53 56 57 63 68 64 57 53 49 38 38 38 40 nan nan nan
nan nan nan nan nan nan 54 51 nan nan 52 53 nan nan 45 50 45 43 42 41 43 46 51 54 60 53 58 58 53 57 68 68 61 62 50 40 38 41 42 41 39 nan nan nan
28 nan nan nan nan nan nan nan nan nan nan nan nan nan nan nan nan nan nan 49 50 56 54 47 45 57 59 53 46 47 46 50 55 52 48 48 40 39 nan nan nan nan nan 49
Wind_Direction
nan nan nan nan nan nan nan nan nan nan nan nan nan nan 9 12 15 6 9 13 4 23 11 358 350 345 347 109 170 120 69 55 39 174 291 307 336 287 292 313 329 332 329 324
nan nan nan nan nan nan nan nan nan nan nan nan nan nan 21 21 12 5 8 24 20 15 342 341 348 340 322 347 4 253 79 162 39 253 268 290 299 303 298 300 313 323 327 325
nan nan nan nan nan nan nan nan nan nan nan nan nan nan nan 41 11 14 14 nan nan 25 357 330 322 337 317 288 281 298 321 339 259 275 267 274 280 288 298 307 308 315 318 317
nan nan nan nan nan nan nan nan nan nan nan nan nan nan nan 5 10 17 17 10 nan 19 2 355 310 312 314 308 286 293 301 296 278 293 295 297 301 301 306 309 309 312 311 309
nan nan nan nan nan nan nan nan nan nan nan nan nan nan nan nan nan 45 26 3 2 6 2 337 334 322 293 290 288 291 286 280 283 297 304 302 296 298 299 300 307 308 305 306
nan nan nan nan nan nan nan nan nan nan nan nan nan nan nan nan nan 55 4 2 357 352 351 332 314 326 280 269 278 282 288 291 294 299 305 310 309 306 305 305 305 306 303 nan
nan nan nan nan nan nan nan nan nan nan nan nan nan nan nan nan nan nan 10 357 349 344 343 348 332 319 292 276 283 281 292 293 296 303 306 313 312 307 308 308 310 307 302 nan
nan nan nan nan nan nan nan nan nan nan nan nan nan nan nan nan nan nan nan 6 321 347 328 351 353 330 295 293 291 294 304 316 311 315 317 315 311 304 298 302 300 304 nan nan
nan nan nan nan nan nan nan nan nan nan nan nan nan nan nan nan nan nan nan nan 338 337 329 354 349 338 327 303 304 309 320 331 322 320 311 311 306 304 309 nan 303 nan nan nan
nan nan nan nan nan nan nan nan nan nan nan nan nan nan nan nan nan nan nan nan nan nan 323 355 350 345 337 333 342 345 344 339 322 320 315 310 310 309 307 nan nan nan nan nan
nan nan nan nan nan nan nan nan nan nan nan nan nan nan nan nan nan nan nan nan nan nan 327 352 346 359 358 340 337 354 352 344 333 328 319 313 311 309 304 nan nan nan nan nan
nan nan nan nan nan nan nan nan nan nan nan nan nan nan nan nan nan nan nan nan nan nan 321 334 342 341 358 15 14 8 359 357 357 347 341 307 318 303 310 nan nan nan nan nan
nan nan nan nan nan nan nan nan nan nan nan nan nan nan nan nan nan nan nan nan nan nan nan 320 320 347 354 355 5 358 350 1 351 339 330 322 313 311 309 nan nan nan nan nan
nan nan nan nan nan nan nan nan nan nan nan nan nan nan nan nan nan nan nan nan nan nan nan 294 305 341 356 348 349 343 345 339 335 329 323 320 316 314 298 305 nan nan nan nan
nan nan nan nan nan nan nan nan nan nan nan nan nan nan nan nan nan nan nan nan nan nan nan 283 321 328 322 313 317 332 336 332 338 338 332 333 329 322 313 315 284 299 nan nan
nan nan nan nan nan nan nan nan nan nan nan nan nan nan nan nan nan nan nan nan nan nan 302 297 301 301 321 326 328 332 331 330 323 334 335 326 320 317 299 283 295 299 298 308
nan nan nan nan nan nan nan nan nan nan nan nan nan nan nan nan nan nan nan nan 275 277 311 318 320 319 313 313 309 322 327 318 318 317 322 322 311 301 298 262 nan 310 305 297
nan nan nan nan nan nan nan nan nan nan nan nan nan nan nan nan nan nan nan nan nan 277 291 300 299 292 nan nan 301 304 309 312 314 311 312 311 310 309 305 300 nan 313 300 299
nan nan nan nan nan nan nan nan nan nan nan nan nan nan nan nan nan nan nan nan nan nan nan nan 271 273 274 289 293 295 295 304 303 306 309 314 309 311 318 314 nan 307 302 289
nan nan nan nan nan nan nan nan nan nan nan nan nan nan nan nan nan nan nan nan nan nan 253 254 254 271 256 281 289 292 290 293 305 303 300 305 305 308 315 292 nan nan 294 292
nan nan nan nan nan nan nan nan nan nan nan nan nan nan nan nan nan nan 237 244 247 254 256 257 254 267 271 277 283 285 291 315 303 299 293 294 295 297 297 294 282 283 286 295
nan nan nan nan nan 216 208 211 232 nan nan nan nan nan nan nan nan 235 238 253 268 262 259 255 263 266 273 278 282 282 294 277 295 290 291 288 293 297 301 289 284 291 292 295
nan 228 214 nan nan nan 203 215 221 nan nan nan nan 230 241 244 241 247 252 262 266 265 268 266 269 263 273 264 286 286 290 287 287 288 288 286 294 301 309 298 282 297 nan nan
249 nan nan nan nan 205 208 206 207 222 241 nan nan 249 242 241 238 243 245 250 256 255 258 257 251 260 260 282 276 277 285 279 285 288 291 290 298 283 301 302 308 nan nan nan
nan nan nan nan nan nan 210 214 nan nan 229 229 nan nan 244 244 238 242 245 245 247 256 258 261 271 278 277 277 282 278 281 281 284 290 298 298 292 298 298 303 309 nan nan nan
225 nan nan nan nan nan nan nan nan nan nan nan nan nan nan nan nan nan nan 248 254 257 260 276 270 267 269 273 277 282 296 300 294 293 296 292 285 291 nan nan nan nan nan 299